When you browse on this site, cookies collect data to enhance your experience and personalize the content and advertising you see.
Visit our Privacy Policy to learn more. By continuing to use the site, you agree to this use of cookies and data.
  • In Lithuania
  • List of Countries
  • For 7 days
  • Water Temperature
  • Satellite Maps
  • Weather Map
  • Weather Widgets
  • user-avatar
    Login

    Hourly Weather Poluninka

    Today, 20 May, Monday

    Time Temperature Precipitation Wind Pressure Humidity
    00:00 +13°C° 0 mm 2 mps 742 mmHg 77%
    01:00 +12°C° 0 mm 2 mps 742 mmHg 77%
    02:00 +10°C° 0 mm 2 mps 743 mmHg 76%
    03:00 +11°C° 0 mm 1 mps 743 mmHg 76%
    04:00 +11°C° 0 mm 1 mps 743 mmHg 76%
    05:00 +11°C° 0 mm 1 mps 743 mmHg 75%
    06:00 +11°C° 0 mm 1 mps 744 mmHg 75%
    07:00 +13°C° 0 mm 1 mps 744 mmHg 69%
    08:00 +14°C° 0 mm 1 mps 744 mmHg 63%
    09:00 +16°C° 0 mm 1 mps 744 mmHg 57%
    10:00 +18°C° 0 mm 1 mps 744 mmHg 55%
    11:00 +19°C° 0 mm 1 mps 744 mmHg 54%
    12:00 +20°C° 0 mm 1 mps 744 mmHg 52%
    13:00 +21°C° 0 mm 1 mps 744 mmHg 51%
    14:00 +21°C° 0 mm 1 mps 744 mmHg 51%
    15:00 +21°C° 0 mm 2 mps 744 mmHg 50%
    16:00 +22°C° 0 mm 1 mps 744 mmHg 53%
    17:00 +21°C° 0 mm 1 mps 743 mmHg 56%
    18:00 +21°C° 0 mm 1 mps 743 mmHg 58%
    19:00 +20°C° 0 mm 1 mps 743 mmHg 63%
    20:00 +17°C° 0 mm 2 mps 743 mmHg 67%
    21:00 +15°C° 0 mm 2 mps 743 mmHg 72%
    22:00 +15°C° 0 mm 2 mps 744 mmHg 74%
    23:00 +14°C° 0 mm 2 mps 744 mmHg 76%

    Tomorrow, 21 May, Tuesday

    Time Temperature Precipitation Wind Pressure Humidity
    00:00 +13°C° 0 mm 2 mps 744 mmHg 79%
    01:00 +13°C° 0 mm 2 mps 744 mmHg 81%
    02:00 +12°C° 0 mm 2 mps 744 mmHg 82%
    03:00 +12°C° 0 mm 2 mps 744 mmHg 84%
    04:00 +12°C° 0 mm 2 mps 744 mmHg 85%
    05:00 +13°C° 0 mm 2 mps 744 mmHg 85%
    06:00 +13°C° 0 mm 2 mps 745 mmHg 86%
    07:00 +14°C° 0 mm 2 mps 745 mmHg 80%
    08:00 +16°C° 0 mm 2 mps 745 mmHg 75%
    09:00 +18°C° 0 mm 2 mps 745 mmHg 69%
    10:00 +19°C° 0 mm 2 mps 744 mmHg 65%
    11:00 +20°C° 0 mm 2 mps 744 mmHg 61%
    12:00 +21°C° 0 mm 3 mps 744 mmHg 58%
    13:00 +21°C° 0 mm 3 mps 744 mmHg 56%
    14:00 +21°C° 0 mm 3 mps 743 mmHg 54%
    15:00 +22°C° 0 mm 4 mps 743 mmHg 53%
    16:00 +21°C° 0 mm 4 mps 743 mmHg 56%
    17:00 +21°C° 0 mm 3 mps 742 mmHg 60%
    18:00 +20°C° 0 mm 3 mps 742 mmHg 63%
    19:00 +18°C° 0 mm 3 mps 742 mmHg 67%
    20:00 +17°C° 0 mm 3 mps 742 mmHg 70%
    21:00 +15°C° 0 mm 2 mps 741 mmHg 73%
    22:00 +13°C° 0 mm 3 mps 741 mmHg 75%
    23:00 +13°C° 0 mm 3 mps 741 mmHg 77%

    Day after tomorrow, 22 May, Wednesday

    Time Temperature Precipitation Wind Pressure Humidity
    00:00 +12°C° 0 mm 3 mps 741 mmHg 79%
    01:00 +12°C° 0 mm 3 mps 741 mmHg 82%
    02:00 +12°C° 0 mm 3 mps 741 mmHg 85%
    03:00 +11°C° 0 mm 3 mps 741 mmHg 88%
    04:00 +12°C° 0 mm 3 mps 740 mmHg 87%
    05:00 +12°C° 0 mm 3 mps 740 mmHg 86%
    06:00 +12°C° 0 mm 3 mps 740 mmHg 85%
    07:00 +14°C° 0 mm 3 mps 740 mmHg 81%
    08:00 +17°C° 0 mm 3 mps 740 mmHg 76%
    09:00 +19°C° 0 mm 3 mps 739 mmHg 71%
    10:00 +20°C° 0 mm 3 mps 739 mmHg 66%
    11:00 +21°C° 0 mm 4 mps 739 mmHg 62%
    12:00 +22°C° 0 mm 4 mps 739 mmHg 58%
    13:00 +22°C° 0 mm 4 mps 738 mmHg 57%
    14:00 +22°C° 0 mm 5 mps 738 mmHg 57%
    15:00 +22°C° 0 mm 5 mps 738 mmHg 57%
    16:00 +22°C° 0 mm 4 mps 737 mmHg 60%
    17:00 +22°C° 0 mm 4 mps 737 mmHg 63%
    18:00 +21°C° 0 mm 4 mps 737 mmHg 67%
    19:00 +20°C° 0 mm 3 mps 736 mmHg 71%
    20:00 +18°C° 0 mm 3 mps 736 mmHg 76%
    21:00 +17°C° 0 mm 3 mps 736 mmHg 80%
    22:00 +16°C° 0 mm 3 mps 736 mmHg 81%
    23:00 +16°C° 0 mm 3 mps 736 mmHg 82%

    23 May, Thursday

    Time Temperature Precipitation Wind Pressure Humidity
    00:00 +14°C° 0 mm 3 mps 736 mmHg 84%
    01:00 +14°C° 0 mm 3 mps 735 mmHg 85%
    02:00 +13°C° 0 mm 3 mps 735 mmHg 87%
    03:00 +13°C° 0 mm 3 mps 735 mmHg 89%
    04:00 +13°C° 0 mm 3 mps 735 mmHg 89%
    05:00 +13°C° 0 mm 3 mps 734 mmHg 88%
    06:00 +14°C° 0 mm 3 mps 734 mmHg 88%
    07:00 +16°C° 0 mm 3 mps 734 mmHg 85%
    08:00 +18°C° 0 mm 3 mps 734 mmHg 81%
    09:00 +20°C° 0 mm 4 mps 734 mmHg 78%
    10:00 +21°C° 0.7 mm 4 mps 734 mmHg 75%
    11:00 +22°C° 0.7 mm 4 mps 734 mmHg 72%
    12:00 +23°C° 0.7 mm 4 mps 734 mmHg 69%
    13:00 +23°C° 0.9 mm 4 mps 733 mmHg 68%
    14:00 +23°C° 0.9 mm 4 mps 733 mmHg 67%
    15:00 +23°C° 0.9 mm 4 mps 733 mmHg 66%
    16:00 +23°C° 0.5 mm 4 mps 733 mmHg 69%
    17:00 +24°C° 0.5 mm 3 mps 733 mmHg 72%
    18:00 +22°C° 0.5 mm 3 mps 733 mmHg 74%
    19:00 +21°C° 0.1 mm 3 mps 733 mmHg 79%
    20:00 +20°C° 0.1 mm 2 mps 733 mmHg 83%
    21:00 +18°C° 0.1 mm 2 mps 733 mmHg 88%
    22:00 +18°C° 0 mm 2 mps 733 mmHg 89%
    23:00 +17°C° 0 mm 2 mps 733 mmHg 91%

    24 May, Friday

    Time Temperature Precipitation Wind Pressure Humidity
    00:00 +18°C° 0 mm 1 mps 733 mmHg 92%
    01:00 +16°C° 0 mm 1 mps 733 mmHg 93%
    02:00 +16°C° 0 mm 1 mps 733 mmHg 93%
    03:00 +15°C° 0 mm 2 mps 733 mmHg 94%
    04:00 +16°C° 0 mm 2 mps 733 mmHg 94%
    05:00 +16°C° 0 mm 2 mps 733 mmHg 94%
    06:00 +16°C° 0 mm 2 mps 733 mmHg 94%
    07:00 +16°C° 0 mm 2 mps 734 mmHg 92%
    08:00 +17°C° 0 mm 3 mps 734 mmHg 91%
    09:00 +18°C° 0 mm 3 mps 734 mmHg 89%
    10:00 +18°C° 0 mm 3 mps 734 mmHg 86%
    11:00 +19°C° 0 mm 3 mps 734 mmHg 82%
    12:00 +20°C° 0 mm 4 mps 734 mmHg 79%
    13:00 +20°C° 0 mm 4 mps 734 mmHg 79%
    14:00 +20°C° 0 mm 4 mps 734 mmHg 79%
    15:00 +20°C° 0 mm 4 mps 733 mmHg 78%
    16:00 +20°C° 0 mm 4 mps 733 mmHg 80%
    17:00 +19°C° 0 mm 4 mps 733 mmHg 81%
    18:00 +19°C° 0 mm 4 mps 733 mmHg 82%
    19:00 +18°C° 0.4 mm 4 mps 733 mmHg 85%
    20:00 +17°C° 0.4 mm 4 mps 733 mmHg 88%
    21:00 +17°C° 0.4 mm 4 mps 733 mmHg 90%
    22:00 +15°C° 0.1 mm 4 mps 733 mmHg 92%
    23:00 +15°C° 0.1 mm 4 mps 733 mmHg 94%

    25 May, Saturday

    Time Temperature Precipitation Wind Pressure Humidity
    00:00 +14°C° 0.1 mm 4 mps 733 mmHg 96%
    01:00 +14°C° 0 mm 4 mps 733 mmHg 96%
    02:00 +14°C° 0 mm 4 mps 733 mmHg 96%
    03:00 +14°C° 0 mm 4 mps 733 mmHg 96%
    04:00 +14°C° 0.1 mm 4 mps 733 mmHg 96%
    05:00 +14°C° 0.1 mm 4 mps 733 mmHg 95%
    06:00 +14°C° 0.1 mm 4 mps 733 mmHg 95%
    07:00 +15°C° 0 mm 4 mps 733 mmHg 93%
    08:00 +17°C° 0 mm 4 mps 733 mmHg 91%
    09:00 +17°C° 0 mm 4 mps 733 mmHg 90%
    10:00 +19°C° 0.5 mm 4 mps 733 mmHg 84%
    11:00 +21°C° 0.5 mm 4 mps 733 mmHg 78%
    12:00 +22°C° 0.5 mm 4 mps 733 mmHg 72%
    13:00 +23°C° 1 mm 4 mps 733 mmHg 70%
    14:00 +23°C° 1 mm 4 mps 733 mmHg 68%
    15:00 +25°C° 1 mm 4 mps 732 mmHg 66%
    16:00 +24°C° 0.9 mm 3 mps 732 mmHg 69%
    17:00 +24°C° 0.9 mm 3 mps 732 mmHg 73%
    18:00 +24°C° 0.9 mm 2 mps 731 mmHg 76%
    19:00 +21°C° 1.2 mm 3 mps 731 mmHg 79%
    20:00 +19°C° 1.2 mm 3 mps 731 mmHg 81%
    21:00 +18°C° 1.2 mm 4 mps 731 mmHg 84%
    22:00 +17°C° 0 mm 3 mps 731 mmHg 86%
    23:00 +17°C° 0 mm 3 mps 731 mmHg 88%
    Show more